OPS 4682 DEB, 38400

Orbit data source: Space-Track

OPS 4682 DEB, 38400 is space debris in LEO originally from a launch on Sat, 03 Apr 1965 UTC launched from the Air Force Western Test Range (AFWTR). Debris objects in space refer to the collection of defunct objects orbiting the Earth. Examples of debris include non-operational satellites, rocket bodies, and fragments generated from explosions, collisions, or faulty payload assembly.

Loading next visibility...
Identifier
38400, 1965-027DD
Orbit
LEO
Country
Flag of USUS
Related business
Manufacturer
Unknown
Mission
Spacecraft
Bus & Motor
Unknown
Mass
Unknown
Launch date (UTC)
1965-04-03 (61 years ago)
Launch vehicle
Unknown
Launch site
Air Force Western Test Range (AFWTR)
Object type
Payload
Rocket body
Debris
Shape & HBR
Unknown shape, 0.1 m
Radar Cross Section
Small (<0.1 m²)

Expand to show TLE details & history
Last TLE update: 4 days ago

TLE from 4 days ago
0 OPS 4682 DEB
1 38400U 65027DD  26032.39824060  .00000795  00000-0  26714-2 0  9993
2 38400  90.2493  14.0377 0033118   2.7272 357.4024 12.98409048596642
Epoch: 2026-02-01T09:33Z
TLE epoch observation values (Epoch: 2026-02-01T09:33:27.987Z)
Latitude
-0.00002°
Longitude
99.06264°
Altitude
1,245.906 km
Speed
7.244 km/s
True Right ascension
00h 56m 09s
True Declination
0° 00' 00"
Sunlit
Object was in daylight at epoch
Visualization orbit readout
Latitude
Unknown
Longitude
Unknown
Altitude
Unknown
Speed
Unknown
Apparent Right ascension
Unknown
Apparent Declination
Unknown
Sunlit
N/A
Visualization observer readout
Local Sidereal Time
11:56:59
Azimuth
Unknown
Elevation
Unknown
Doppler factor
Unknown
Orbital elements
Apogee altitude
1,290.77 km
Perigee altitude
1,240.142 km
Semi-major axis
7,643.593 km
Eccentricity
0.00331
Inclination
90.2493°
RAAN
14.0377°
Arg. of periapsis
2.7272°
True anomaly
357.38513°
Mean anomaly
357.4024°
Eccentric anomaly
357.39377°
Mean motion
3.24786 °/min
Orbital period
110.84 mins
BSTAR
0.0026714
Loading maneuver chart data...
Computing Atmospheric mass density...
Loading historical data...
Loading historical data...
Loading historical data...
Loading historical data...
Loading historical data...
Loading historical data...
Loading historical data...

Documentation

Showing up to 5 results
|